TWY67 KSSI-KTEB

Flight info

Callsign TWY67
Flight time 1h 47m
Altitude 45000
Route BROUN JROSS Q87 RAYVO FLO DADDS NOWAE SWNGR JAIKE4
Aircraft C680/M-SDFGHRWY/SB1

Departure

Time 2026-05-03 23:30
Airport St Simons Island Airport (KSSI)

Arrival

Time 2026-05-04 01:17
Airport Teterboro Airport (KTEB)
Time Latitude Longitude Altitude Speed Heading
2026-05-03 23:15 31.15525 -81.38707 23 ft 0 kts 155°
2026-05-03 23:24 31.15521 -81.38705 23 ft 3 kts 160°
2026-05-03 23:25 31.15516 -81.38750 23 ft 7 kts 317°
2026-05-03 23:25 31.15552 -81.38774 23 ft 10 kts 334°
2026-05-03 23:25 31.15618 -81.38810 24 ft 8 kts 334°
2026-05-03 23:25 31.15640 -81.38823 23 ft 0 kts 334°
2026-05-03 23:26 31.15652 -81.38829 23 ft 5 kts 334°
2026-05-03 23:26 31.15692 -81.38851 25 ft 0 kts 334°
2026-05-03 23:29 31.15721 -81.38867 23 ft 8 kts 333°
2026-05-03 23:29 31.15716 -81.38923 24 ft 12 kts 216°
2026-05-03 23:29 31.15468 -81.39133 25 ft 89 kts 216°
2026-05-03 23:29 31.14761 -81.39757 296 ft 154 kts 214°
2026-05-03 23:30 31.13912 -81.40763 1069 ft 197 kts 239°
2026-05-03 23:30 31.13800 -81.42461 1932 ft 227 kts 287°
2026-05-03 23:30 31.14761 -81.43948 2925 ft 238 kts 322°
2026-05-03 23:30 31.16280 -81.44610 2991 ft 232 kts 359°
2026-05-03 23:31 31.17828 -81.44211 3004 ft 233 kts 22°
2026-05-03 23:31 31.19390 -81.43462 3008 ft 252 kts 25°
2026-05-03 23:31 31.21044 -81.42714 3021 ft 257 kts 22°
2026-05-03 23:31 31.22758 -81.42025 3020 ft 262 kts 20°
2026-05-03 23:32 31.24484 -81.41336 3022 ft 265 kts 21°
2026-05-03 23:32 31.26249 -81.40597 3026 ft 271 kts 22°
2026-05-03 23:32 31.28013 -81.39858 3024 ft 267 kts 21°
2026-05-03 23:32 31.29768 -81.39131 3017 ft 268 kts 21°
2026-05-03 23:33 31.31512 -81.38408 3016 ft 266 kts 21°
2026-05-03 23:33 31.33273 -81.37675 3015 ft 270 kts 22°
2026-05-03 23:33 31.35027 -81.36945 3012 ft 265 kts 21°
2026-05-03 23:33 31.36779 -81.36217 3010 ft 270 kts 21°
2026-05-03 23:34 31.38541 -81.35481 3014 ft 266 kts 22°
2026-05-03 23:34 31.40285 -81.34755 3011 ft 268 kts 21°
2026-05-03 23:34 31.42058 -81.34016 3930 ft 264 kts 19°
2026-05-03 23:34 31.43762 -81.33303 5750 ft 260 kts 18°
2026-05-03 23:35 31.45489 -81.32584 7193 ft 268 kts 18°
2026-05-03 23:35 31.47241 -81.31717 8504 ft 279 kts 23°
2026-05-03 23:35 31.49016 -81.30718 9847 ft 288 kts 23°
2026-05-03 23:35 31.50854 -81.29696 11086 ft 296 kts 21°
2026-05-03 23:36 31.52737 -81.28670 12330 ft 303 kts 21°
2026-05-03 23:36 31.54684 -81.27609 13497 ft 313 kts 21°
2026-05-03 23:36 31.56683 -81.26509 14587 ft 322 kts 21°
2026-05-03 23:36 31.58725 -81.25380 15668 ft 328 kts 21°
2026-05-03 23:37 31.60817 -81.24230 16716 ft 335 kts 21°
2026-05-03 23:37 31.62948 -81.23059 17743 ft 342 kts 21°
2026-05-03 23:37 31.65128 -81.21858 18704 ft 349 kts 21°
2026-05-03 23:37 31.67321 -81.20648 19497 ft 357 kts 20°
2026-05-03 23:38 31.69619 -81.19382 20302 ft 364 kts 20°
2026-05-03 23:38 31.71907 -81.18120 21070 ft 371 kts 20°
2026-05-03 23:38 31.74262 -81.16820 21834 ft 378 kts 20°
2026-05-03 23:38 31.76666 -81.15491 22599 ft 385 kts 20°
2026-05-03 23:39 31.79105 -81.14143 23410 ft 390 kts 20°
2026-05-03 23:39 31.81581 -81.12774 24049 ft 396 kts 20°
2026-05-03 23:39 31.84091 -81.11385 24678 ft 401 kts 20°
2026-05-03 23:39 31.86631 -81.09978 25291 ft 406 kts 20°
2026-05-03 23:40 31.89198 -81.08556 25872 ft 410 kts 19°
2026-05-03 23:40 31.91798 -81.07115 26446 ft 415 kts 19°
2026-05-03 23:40 31.94423 -81.05659 27008 ft 419 kts 19°
2026-05-03 23:40 31.97072 -81.04188 27551 ft 424 kts 19°
2026-05-03 23:41 31.99753 -81.02699 28097 ft 428 kts 19°
2026-05-03 23:41 32.02453 -81.01198 28708 ft 429 kts 19°
2026-05-03 23:41 32.05144 -80.99700 29514 ft 426 kts 19°
2026-05-03 23:41 32.07820 -80.98210 30170 ft 426 kts 19°
2026-05-03 23:42 32.10496 -80.96724 30701 ft 426 kts 19°
2026-05-03 23:42 32.13185 -80.95226 31225 ft 426 kts 19°
2026-05-03 23:42 32.15865 -80.93731 31777 ft 426 kts 19°
2026-05-03 23:42 32.18550 -80.92232 32309 ft 426 kts 18°
2026-05-03 23:43 32.21229 -80.90738 32799 ft 427 kts 18°
2026-05-03 23:43 32.23916 -80.89237 33273 ft 428 kts 18°
2026-05-03 23:43 32.26605 -80.87734 33779 ft 428 kts 18°
2026-05-03 23:43 32.29287 -80.86234 34298 ft 427 kts 18°
2026-05-03 23:44 32.31980 -80.84726 34693 ft 428 kts 18°
2026-05-03 23:44 32.34674 -80.83219 35064 ft 429 kts 17°
2026-05-03 23:44 32.37377 -80.81704 35447 ft 430 kts 17°
2026-05-03 23:44 32.40082 -80.80187 35821 ft 431 kts 17°
2026-05-03 23:45 32.42793 -80.78664 36199 ft 432 kts 17°
2026-05-03 23:45 32.45505 -80.77142 36576 ft 432 kts 17°
2026-05-03 23:45 32.48230 -80.75611 36936 ft 433 kts 17°
2026-05-03 23:45 32.50954 -80.74079 37306 ft 434 kts 16°
2026-05-03 23:46 32.53686 -80.72542 37664 ft 435 kts 16°
2026-05-03 23:46 32.56422 -80.71001 38100 ft 435 kts 16°
2026-05-03 23:46 32.59148 -80.69463 38493 ft 434 kts 16°
2026-05-03 23:46 32.61881 -80.67923 38827 ft 435 kts 16°
2026-05-03 23:47 32.64614 -80.66383 39131 ft 434 kts 16°
2026-05-03 23:47 32.67338 -80.64842 39452 ft 433 kts 16°
2026-05-03 23:47 32.70057 -80.63304 39760 ft 432 kts 16°
2026-05-03 23:47 32.72755 -80.61726 40069 ft 433 kts 18°
2026-05-03 23:48 32.75446 -80.60125 40374 ft 432 kts 17°
2026-05-03 23:48 32.78133 -80.58548 40689 ft 430 kts 17°
2026-05-03 23:48 32.80815 -80.56967 41056 ft 429 kts 17°
2026-05-03 23:48 32.83472 -80.55390 41458 ft 426 kts 17°
2026-05-03 23:49 32.86115 -80.53816 41781 ft 425 kts 17°
2026-05-03 23:49 32.88757 -80.52242 41996 ft 426 kts 17°
2026-05-03 23:49 32.91410 -80.50669 42270 ft 426 kts 17°
2026-05-03 23:49 32.94056 -80.49094 42576 ft 425 kts 17°
2026-05-03 23:50 32.96697 -80.47516 42879 ft 425 kts 17°
2026-05-03 23:50 32.98410 -80.46493 43074 ft 424 kts 17°
2026-05-03 23:50 33.01979 -80.44365 43469 ft 423 kts 17°
2026-05-03 23:50 33.04609 -80.42794 43754 ft 422 kts 17°
2026-05-03 23:51 33.07193 -80.41249 44009 ft 422 kts 17°
2026-05-03 23:51 33.09814 -80.39681 44263 ft 421 kts 17°
2026-05-03 23:51 33.12438 -80.38145 44482 ft 419 kts 16°
2026-05-03 23:51 33.15090 -80.36701 44626 ft 419 kts 14°
2026-05-03 23:52 33.20522 -80.34262 44813 ft 413 kts
2026-05-03 23:52 33.25912 -80.31961 44987 ft 417 kts 17°
2026-05-03 23:53 33.28415 -80.30140 45095 ft 424 kts 25°
2026-05-03 23:53 33.30883 -80.28173 45131 ft 428 kts 25°
2026-05-03 23:53 33.35941 -80.24267 45102 ft 438 kts 26°
2026-05-03 23:54 33.38487 -80.22262 45232 ft 437 kts 25°
2026-05-03 23:54 33.41044 -80.20254 45119 ft 443 kts 25°
2026-05-03 23:54 33.43747 -80.18561 45107 ft 435 kts 14°
2026-05-03 23:54 33.46572 -80.17268 45108 ft 435 kts 10°
2026-05-03 23:55 33.52224 -80.14417 45093 ft 451 kts 19°
2026-05-03 23:55 33.57769 -80.10704 45108 ft 459 kts 20°
2026-05-03 23:56 33.63506 -80.07385 45105 ft 459 kts 18°
2026-05-03 23:56 33.69120 -80.03487 45109 ft 470 kts 25°
2026-05-03 23:57 33.74772 -79.99608 45103 ft 473 kts 22°
2026-05-03 23:57 33.80511 -79.95615 45097 ft 479 kts 24°
2026-05-03 23:58 33.86303 -79.91578 45093 ft 483 kts 23°
2026-05-03 23:58 33.92151 -79.87515 45091 ft 487 kts 24°
2026-05-03 23:59 33.98025 -79.83404 45086 ft 489 kts 24°
2026-05-03 23:59 34.03916 -79.79296 45065 ft 489 kts 24°
2026-05-04 00:00 34.09803 -79.75168 45092 ft 490 kts 24°
2026-05-04 00:00 34.15695 -79.71041 45087 ft 490 kts 24°
2026-05-04 00:01 34.21596 -79.66894 45093 ft 491 kts 24°
2026-05-04 00:01 34.27591 -79.63029 45086 ft 487 kts 20°
2026-05-04 00:02 34.33636 -79.59301 45103 ft 489 kts 21°
2026-05-04 00:02 34.39678 -79.55526 45097 ft 489 kts 20°
2026-05-04 00:03 34.45734 -79.51771 45088 ft 489 kts 20°
2026-05-04 00:03 34.51783 -79.47987 45085 ft 490 kts 20°
2026-05-04 00:04 34.57852 -79.44207 45096 ft 491 kts 20°
2026-05-04 00:04 34.63920 -79.40403 45082 ft 491 kts 20°
2026-05-04 00:05 34.69997 -79.36600 45083 ft 491 kts 20°
2026-05-04 00:05 34.76070 -79.32784 45083 ft 492 kts 20°
2026-05-04 00:06 34.82153 -79.28962 45098 ft 493 kts 21°
2026-05-04 00:06 34.88202 -79.25150 45092 ft 493 kts 21°
2026-05-04 00:07 34.94296 -79.21307 45081 ft 493 kts 21°
2026-05-04 00:07 35.00389 -79.17456 45060 ft 494 kts 21°
2026-05-04 00:08 35.06495 -79.13591 45068 ft 494 kts 21°
2026-05-04 00:08 35.12601 -79.09718 45060 ft 495 kts 21°
2026-05-04 00:09 35.18711 -79.05838 45067 ft 495 kts 21°
2026-05-04 00:09 35.24823 -79.01949 45055 ft 495 kts 21°
2026-05-04 00:10 35.30945 -78.98049 45069 ft 496 kts 21°
2026-05-04 00:10 35.37071 -78.94135 45068 ft 497 kts 21°
2026-05-04 00:11 35.43196 -78.90219 45079 ft 497 kts 21°
2026-05-04 00:11 35.49320 -78.86296 45080 ft 497 kts 21°
2026-05-04 00:12 35.54418 -78.83025 45077 ft 497 kts 21°
2026-05-04 00:12 35.61535 -78.78420 45082 ft 499 kts 23°
2026-05-04 00:13 35.67574 -78.74216 45081 ft 499 kts 23°
2026-05-04 00:13 35.72647 -78.70701 45096 ft 500 kts 23°
2026-05-04 00:14 35.78706 -78.66476 45070 ft 500 kts 23°
2026-05-04 00:14 35.84765 -78.62253 45078 ft 501 kts 23°
2026-05-04 00:15 35.90832 -78.58013 45077 ft 501 kts 24°
2026-05-04 00:15 35.96895 -78.53770 45096 ft 502 kts 22°
2026-05-04 00:16 36.02979 -78.49535 45102 ft 502 kts 22°
2026-05-04 00:16 36.09050 -78.45250 45103 ft 503 kts 23°
2026-05-04 00:17 36.15138 -78.40978 45101 ft 503 kts 22°
2026-05-04 00:17 36.21232 -78.36674 45096 ft 505 kts 23°
2026-05-04 00:18 36.27336 -78.32360 45080 ft 505 kts 23°
2026-05-04 00:18 36.33431 -78.28039 45079 ft 504 kts 23°
2026-05-04 00:19 36.39480 -78.23750 45080 ft 504 kts 24°
2026-05-04 00:19 36.45487 -78.19249 45084 ft 505 kts 25°
2026-05-04 00:20 36.51518 -78.14814 45078 ft 503 kts 24°
2026-05-04 00:20 36.57522 -78.10357 45122 ft 502 kts 25°
2026-05-04 00:21 36.63521 -78.05899 45172 ft 502 kts 24°
2026-05-04 00:21 36.69513 -78.01449 45136 ft 499 kts 25°
2026-05-04 00:22 36.75475 -77.96994 45134 ft 500 kts 24°
2026-05-04 00:22 36.81466 -77.92530 45108 ft 502 kts 25°
2026-05-04 00:23 36.87463 -77.88036 45067 ft 503 kts 25°
2026-05-04 00:23 36.93442 -77.83558 45065 ft 499 kts 25°
2026-05-04 00:24 36.99401 -77.79084 45078 ft 500 kts 25°
2026-05-04 00:24 37.05357 -77.74604 45081 ft 501 kts 24°
2026-05-04 00:25 37.11356 -77.70099 45088 ft 503 kts 25°
2026-05-04 00:25 37.17351 -77.65542 45101 ft 504 kts 25°
2026-05-04 00:26 37.23375 -77.61019 45101 ft 505 kts 25°
2026-05-04 00:26 37.29378 -77.56444 45067 ft 503 kts 24°
2026-05-04 00:27 37.35345 -77.51930 45077 ft 499 kts 24°
2026-05-04 00:27 37.41348 -77.47570 45077 ft 500 kts 24°
2026-05-04 00:28 37.47288 -77.42961 45070 ft 502 kts 25°
2026-05-04 00:28 37.53293 -77.38492 45125 ft 501 kts 23°
2026-05-04 00:29 37.59437 -77.34394 45207 ft 497 kts 20°
2026-05-04 00:29 37.65424 -77.29948 45077 ft 504 kts 30°
2026-05-04 00:30 37.71043 -77.24720 45070 ft 500 kts 28°
2026-05-04 00:30 37.77009 -77.20332 45062 ft 495 kts 21°
2026-05-04 00:31 37.82985 -77.15872 45058 ft 500 kts 25°
2026-05-04 00:31 37.88996 -77.11463 45060 ft 501 kts 24°
2026-05-04 00:32 37.94889 -77.06804 45086 ft 504 kts 26°
2026-05-04 00:32 38.00916 -77.02214 44734 ft 508 kts 25°
2026-05-04 00:33 38.03937 -76.99891 44446 ft 505 kts 25°
2026-05-04 00:33 38.09845 -76.95258 43880 ft 493 kts 25°
2026-05-04 00:33 38.12766 -76.93020 43602 ft 491 kts 24°
2026-05-04 00:34 38.15692 -76.90773 43372 ft 492 kts 24°
2026-05-04 00:34 38.18619 -76.88489 43104 ft 494 kts 25°
2026-05-04 00:34 38.21545 -76.86196 42828 ft 495 kts 25°
2026-05-04 00:34 38.24484 -76.83914 42567 ft 495 kts 24°
2026-05-04 00:35 38.27431 -76.81633 42309 ft 496 kts 24°
2026-05-04 00:35 38.30378 -76.79334 42052 ft 497 kts 24°
2026-05-04 00:35 38.33321 -76.77029 41799 ft 497 kts 24°
2026-05-04 00:35 38.36273 -76.74723 41558 ft 497 kts 24°
2026-05-04 00:36 38.39220 -76.72425 41340 ft 497 kts 24°
2026-05-04 00:36 38.42169 -76.70119 41096 ft 497 kts 24°
2026-05-04 00:36 38.45110 -76.67810 40854 ft 496 kts 24°
2026-05-04 00:36 38.48045 -76.65508 40615 ft 495 kts 24°
2026-05-04 00:37 38.50970 -76.63215 40380 ft 494 kts 24°
2026-05-04 00:37 38.53895 -76.60919 40146 ft 493 kts 24°
2026-05-04 00:37 38.56825 -76.58615 39916 ft 495 kts 23°
2026-05-04 00:37 38.59756 -76.56310 39748 ft 495 kts 24°
2026-05-04 00:38 38.62700 -76.53991 39211 ft 501 kts 24°
2026-05-04 00:38 38.65675 -76.51647 38518 ft 503 kts 24°
2026-05-04 00:38 38.68632 -76.49304 37826 ft 496 kts 23°
2026-05-04 00:38 38.71551 -76.46988 37183 ft 489 kts 22°
2026-05-04 00:39 38.74428 -76.44718 36541 ft 485 kts 22°
2026-05-04 00:39 38.77311 -76.42449 35896 ft 486 kts 22°
2026-05-04 00:39 38.80188 -76.40172 35266 ft 487 kts 22°
2026-05-04 00:39 38.83057 -76.37885 34619 ft 484 kts 22°
2026-05-04 00:40 38.85905 -76.35616 33973 ft 481 kts 21°
2026-05-04 00:40 38.88751 -76.33365 33297 ft 479 kts 21°
2026-05-04 00:40 38.91586 -76.31117 32663 ft 481 kts 22°
2026-05-04 00:40 38.94439 -76.28845 32028 ft 483 kts 22°
2026-05-04 00:41 38.97292 -76.26565 31386 ft 483 kts 22°
2026-05-04 00:41 39.00144 -76.24287 30766 ft 482 kts 22°
2026-05-04 00:41 39.02971 -76.22029 30112 ft 475 kts 23°
2026-05-04 00:41 39.05775 -76.19788 29440 ft 475 kts 23°
2026-05-04 00:42 39.08588 -76.17547 28809 ft 478 kts 23°
2026-05-04 00:42 39.11400 -76.15292 28179 ft 472 kts 23°
2026-05-04 00:42 39.14162 -76.13064 27561 ft 466 kts 23°
2026-05-04 00:42 39.16908 -76.10863 26948 ft 463 kts 23°
2026-05-04 00:43 39.19626 -76.08691 26380 ft 456 kts 23°
2026-05-04 00:43 39.22297 -76.06542 25742 ft 447 kts 23°
2026-05-04 00:43 39.24924 -76.04423 25152 ft 445 kts 23°
2026-05-04 00:43 39.27541 -76.02320 24565 ft 440 kts 24°
2026-05-04 00:44 39.30119 -76.00243 23988 ft 436 kts 24°
2026-05-04 00:44 39.32690 -75.98170 23380 ft 433 kts 24°
2026-05-04 00:44 39.35219 -75.96124 22793 ft 426 kts 24°
2026-05-04 00:44 39.37738 -75.94092 22227 ft 427 kts 24°
2026-05-04 00:45 39.40245 -75.92071 21677 ft 421 kts 25°
2026-05-04 00:45 39.42711 -75.90080 21103 ft 415 kts 25°
2026-05-04 00:45 39.45145 -75.88104 20561 ft 412 kts 25°
2026-05-04 00:45 39.47567 -75.86138 20021 ft 410 kts 25°
2026-05-04 00:46 39.49971 -75.84189 19479 ft 405 kts 26°
2026-05-04 00:46 39.52344 -75.82262 18952 ft 400 kts 26°
2026-05-04 00:46 39.54691 -75.80354 18424 ft 396 kts 26°
2026-05-04 00:46 39.57010 -75.78467 17871 ft 392 kts 26°
2026-05-04 00:47 39.59315 -75.76591 17344 ft 391 kts 26°
2026-05-04 00:47 39.61577 -75.74751 16892 ft 385 kts 26°
2026-05-04 00:47 39.63832 -75.72909 16412 ft 383 kts 26°
2026-05-04 00:47 39.66086 -75.71072 15908 ft 380 kts 27°
2026-05-04 00:48 39.68306 -75.69259 15410 ft 377 kts 27°
2026-05-04 00:48 39.70523 -75.67448 14912 ft 373 kts 27°
2026-05-04 00:48 39.72705 -75.65661 14416 ft 371 kts 27°
2026-05-04 00:48 39.74884 -75.63879 13939 ft 367 kts 27°
2026-05-04 00:49 39.77031 -75.62120 13423 ft 363 kts 27°
2026-05-04 00:49 39.79138 -75.60360 13083 ft 356 kts 30°
2026-05-04 00:49 39.81147 -75.58506 13087 ft 354 kts 31°
2026-05-04 00:49 39.83155 -75.56640 13074 ft 356 kts 31°
2026-05-04 00:50 39.85183 -75.54762 13094 ft 358 kts 31°
2026-05-04 00:50 39.87217 -75.52888 13095 ft 359 kts 30°
2026-05-04 00:50 39.89259 -75.51003 13096 ft 360 kts 31°
2026-05-04 00:50 39.91303 -75.49108 13093 ft 361 kts 31°
2026-05-04 00:51 39.93350 -75.47212 13097 ft 361 kts 31°
2026-05-04 00:51 39.95398 -75.45313 13086 ft 362 kts 31°
2026-05-04 00:51 39.97443 -75.43414 13096 ft 362 kts 31°
2026-05-04 00:51 39.99497 -75.41509 13085 ft 361 kts 31°
2026-05-04 00:52 40.01516 -75.39630 13096 ft 353 kts 31°
2026-05-04 00:52 40.03520 -75.37766 13094 ft 354 kts 31°
2026-05-04 00:52 40.05529 -75.35900 13090 ft 355 kts 31°
2026-05-04 00:52 40.07536 -75.34032 13086 ft 356 kts 31°
2026-05-04 00:53 40.09551 -75.32153 13083 ft 356 kts 31°
2026-05-04 00:53 40.11566 -75.30271 13076 ft 352 kts 31°
2026-05-04 00:53 40.13496 -75.28463 13080 ft 330 kts 31°
2026-05-04 00:53 40.15314 -75.26762 12866 ft 314 kts 31°
2026-05-04 00:54 40.17055 -75.25144 12557 ft 301 kts 31°
2026-05-04 00:54 40.18735 -75.23585 12248 ft 292 kts 30°
2026-05-04 00:54 40.20374 -75.22056 11932 ft 286 kts 30°
2026-05-04 00:54 40.21993 -75.20545 11621 ft 286 kts 30°
2026-05-04 00:55 40.23610 -75.19035 11277 ft 285 kts 30°
2026-05-04 00:55 40.25203 -75.17547 10972 ft 285 kts 30°
2026-05-04 00:55 40.26817 -75.16037 10584 ft 285 kts 30°
2026-05-04 00:55 40.28435 -75.14519 10199 ft 280 kts 30°
2026-05-04 00:56 40.30003 -75.13047 9827 ft 275 kts 30°
2026-05-04 00:56 40.31537 -75.11610 9445 ft 274 kts 30°
2026-05-04 00:56 40.32976 -75.09942 9070 ft 280 kts 41°
2026-05-04 00:56 40.34292 -75.08046 8705 ft 282 kts 42°
2026-05-04 00:57 40.35624 -75.06162 8333 ft 281 kts 41°
2026-05-04 00:57 40.36964 -75.04296 7958 ft 281 kts 41°
2026-05-04 00:57 40.38301 -75.02425 7588 ft 281 kts 41°
2026-05-04 00:57 40.39635 -75.00545 7210 ft 281 kts 41°
2026-05-04 00:58 40.40951 -74.98683 7034 ft 273 kts 41°
2026-05-04 00:58 40.42245 -74.96862 7035 ft 274 kts 41°
2026-05-04 00:58 40.43558 -74.95024 7036 ft 277 kts 41°
2026-05-04 00:58 40.44875 -74.93170 7034 ft 278 kts 41°
2026-05-04 00:59 40.46199 -74.91299 7032 ft 280 kts 41°
2026-05-04 00:59 40.47531 -74.89422 7031 ft 282 kts 41°
2026-05-04 00:59 40.48424 -74.88185 7029 ft 285 kts 41°
2026-05-04 00:59 40.49802 -74.86276 7014 ft 286 kts 42°
2026-05-04 01:00 40.51122 -74.84357 7010 ft 282 kts 43°
2026-05-04 01:00 40.52449 -74.82449 7007 ft 283 kts 41°
2026-05-04 01:00 40.53784 -74.80573 7007 ft 281 kts 41°
2026-05-04 01:00 40.55128 -74.78687 7016 ft 283 kts 41°
2026-05-04 01:01 40.56455 -74.76802 7017 ft 280 kts 42°
2026-05-04 01:01 40.57784 -74.74915 7017 ft 282 kts 41°
2026-05-04 01:01 40.59112 -74.73031 7035 ft 280 kts 41°
2026-05-04 01:01 40.60450 -74.71144 7018 ft 282 kts 41°
2026-05-04 01:02 40.61790 -74.69253 6762 ft 282 kts 41°
2026-05-04 01:02 40.63120 -74.67369 6515 ft 280 kts 42°
2026-05-04 01:02 40.64443 -74.65494 6262 ft 279 kts 42°
2026-05-04 01:02 40.65768 -74.63620 6001 ft 279 kts 42°
2026-05-04 01:03 40.67088 -74.61747 5735 ft 278 kts 42°
2026-05-04 01:03 40.68401 -74.59884 5473 ft 277 kts 42°
2026-05-04 01:03 40.69732 -74.58068 5205 ft 273 kts 37°
2026-05-04 01:03 40.71233 -74.56564 5030 ft 268 kts 29°
2026-05-04 01:04 40.72768 -74.55212 5031 ft 266 kts 28°
2026-05-04 01:04 40.74336 -74.53859 5030 ft 270 kts 27°
2026-05-04 01:04 40.75900 -74.52501 4896 ft 270 kts 27°
2026-05-04 01:04 40.77459 -74.51132 4643 ft 268 kts 28°
2026-05-04 01:05 40.79015 -74.49786 4397 ft 268 kts 27°
2026-05-04 01:05 40.80574 -74.48429 4140 ft 269 kts 28°
2026-05-04 01:05 40.82124 -74.47079 4055 ft 264 kts 28°
2026-05-04 01:05 40.83658 -74.45743 4051 ft 265 kts 28°
2026-05-04 01:06 40.85203 -74.44395 4053 ft 267 kts 28°
2026-05-04 01:06 40.86757 -74.43048 4054 ft 268 kts 28°
2026-05-04 01:06 40.88325 -74.41697 4054 ft 269 kts 28°
2026-05-04 01:06 40.89893 -74.40347 4042 ft 268 kts 27°
2026-05-04 01:07 40.91436 -74.39020 4040 ft 268 kts 27°
2026-05-04 01:07 40.93015 -74.37650 4038 ft 269 kts 28°
2026-05-04 01:07 40.94558 -74.36304 4047 ft 269 kts 27°
2026-05-04 01:07 40.96123 -74.34937 4032 ft 268 kts 27°
2026-05-04 01:08 40.97658 -74.33575 4037 ft 266 kts 27°
2026-05-04 01:08 40.99200 -74.32206 4036 ft 267 kts 28°
2026-05-04 01:08 41.00739 -74.30838 4037 ft 265 kts 28°
2026-05-04 01:08 41.02256 -74.29485 4036 ft 267 kts 27°
2026-05-04 01:09 41.03807 -74.28124 4040 ft 267 kts 27°
2026-05-04 01:09 41.05357 -74.26769 4028 ft 268 kts 27°
2026-05-04 01:09 41.06870 -74.25254 3753 ft 279 kts 40°
2026-05-04 01:09 41.07850 -74.23024 3442 ft 284 kts 69°
2026-05-04 01:10 41.08009 -74.20411 3150 ft 289 kts 92°
2026-05-04 01:10 41.07778 -74.17817 3029 ft 274 kts 97°
2026-05-04 01:10 41.07512 -74.15413 2968 ft 255 kts 98°
2026-05-04 01:10 41.07256 -74.13150 2710 ft 242 kts 97°
2026-05-04 01:11 41.07012 -74.10999 2449 ft 231 kts 98°
2026-05-04 01:11 41.06719 -74.08955 2168 ft 223 kts 110°
2026-05-04 01:11 41.05869 -74.07354 2106 ft 204 kts 136°
2026-05-04 01:11 41.04900 -74.06012 2114 ft 203 kts 137°
2026-05-04 01:12 41.03816 -74.04789 2096 ft 205 kts 158°
2026-05-04 01:12 41.02462 -74.04531 2108 ft 195 kts 192°
2026-05-04 01:12 41.01115 -74.04761 2114 ft 197 kts 192°
2026-05-04 01:12 40.99736 -74.04874 2121 ft 200 kts 189°
2026-05-04 01:13 40.98352 -74.04962 2120 ft 197 kts 189°
2026-05-04 01:13 40.97013 -74.05065 2127 ft 187 kts 190°
2026-05-04 01:13 40.95755 -74.05158 2031 ft 176 kts 190°
2026-05-04 01:13 40.94612 -74.05235 1825 ft 152 kts 190°
2026-05-04 01:14 40.93599 -74.05318 1626 ft 138 kts 191°
2026-05-04 01:14 40.92681 -74.05384 1444 ft 126 kts 190°
2026-05-04 01:14 40.91852 -74.05444 1279 ft 115 kts 189°
2026-05-04 01:14 40.91070 -74.05501 1127 ft 110 kts 188°
2026-05-04 01:15 40.90301 -74.05559 986 ft 112 kts 188°
2026-05-04 01:15 40.89520 -74.05623 835 ft 112 kts 187°
2026-05-04 01:15 40.88762 -74.05674 677 ft 108 kts 188°
2026-05-04 01:15 40.88019 -74.05728 538 ft 107 kts 188°
2026-05-04 01:16 40.87261 -74.05787 398 ft 111 kts 187°
2026-05-04 01:16 40.86487 -74.05844 232 ft 112 kts 186°
2026-05-04 01:16 40.85730 -74.05899 83 ft 107 kts 185°
2026-05-04 01:16 40.85031 -74.05955 6 ft 89 kts 181°
2026-05-04 01:17 40.84493 -74.05991 12 ft 54 kts 182°
2026-05-04 01:17 40.84321 -74.06039 10 ft 20 kts 218°
2026-05-04 01:17 40.84254 -74.06129 8 ft 12 kts 232°
2026-05-04 01:17 40.84242 -74.06253 11 ft 17 kts 273°
2026-05-04 01:18 40.84248 -74.06395 16 ft 9 kts 274°
2026-05-04 01:18 40.84220 -74.06475 16 ft 11 kts 208°
2026-05-04 01:18 40.84161 -74.06518 16 ft 7 kts 208°
2026-05-04 01:18 40.84148 -74.06543 16 ft 5 kts 290°
2026-05-04 01:19 40.84160 -74.06569 16 ft 0 kts 302°